TimeEDT,TemperatureF,Dew PointF,Humidity,Sea Level PressureIn,VisibilityMPH,Wind Direction,Wind SpeedMPH,Gust SpeedMPH,PrecipitationIn,Events,Conditions,WindDirDegrees,DateUTC
12:54 AM,64.0,37.9,38,29.92,10.0,SW,6.9,-,N/A,,Clear,230,2013-03-17 04:54:00
1:54 AM,63.0,37.9,40,29.92,10.0,WSW,6.9,-,N/A,,Clear,240,2013-03-17 05:54:00
2:54 AM,63.0,39.0,41,29.92,10.0,WSW,8.1,-,N/A,,Clear,240,2013-03-17 06:54:00
3:54 AM,62.1,39.0,43,29.91,10.0,SW,5.8,-,N/A,,Clear,220,2013-03-17 07:54:00
4:54 AM,60.1,39.0,46,29.90,10.0,Variable,3.5,-,N/A,,Clear,0,2013-03-17 08:54:00
5:54 AM,57.9,39.0,49,29.91,10.0,WSW,6.9,-,N/A,,Clear,240,2013-03-17 09:54:00
6:54 AM,57.9,39.0,49,29.93,10.0,WSW,9.2,-,N/A,,Clear,240,2013-03-17 10:54:00
7:54 AM,57.0,41.0,55,29.94,10.0,WSW,8.1,-,N/A,,Clear,240,2013-03-17 11:54:00
8:54 AM,59.0,42.1,53,29.95,10.0,WSW,10.4,16.1,N/A,,Clear,240,2013-03-17 12:54:00
9:54 AM,63.0,45.0,52,29.96,10.0,SW,10.4,17.3,N/A,,Clear,230,2013-03-17 13:54:00
10:54 AM,68.0,46.0,45,29.96,10.0,WSW,9.2,-,N/A,,Clear,240,2013-03-17 14:54:00
11:54 AM,71.1,46.9,42,29.96,10.0,SW,6.9,-,N/A,,Clear,230,2013-03-17 15:54:00
12:54 PM,75.0,48.9,40,29.94,10.0,WSW,11.5,16.1,N/A,,Clear,250,2013-03-17 16:54:00
1:54 PM,75.0,48.0,38,29.91,10.0,Variable,6.9,-,N/A,,Clear,0,2013-03-17 17:54:00
2:54 PM,73.9,45.0,35,29.89,10.0,Variable,6.9,-,N/A,,Clear,0,2013-03-17 18:54:00
3:54 PM,75.0,43.0,32,29.88,10.0,WSW,10.4,20.7,N/A,,Clear,250,2013-03-17 19:54:00
4:54 PM,73.9,46.0,37,29.89,10.0,SSW,9.2,17.3,N/A,,Partly Cloudy,210,2013-03-17 20:54:00
5:54 PM,73.0,45.0,37,29.89,10.0,WSW,9.2,-,N/A,,Clear,240,2013-03-17 21:54:00
6:54 PM,71.1,45.0,39,29.90,10.0,SW,4.6,-,N/A,,Clear,220,2013-03-17 22:54:00
7:54 PM,69.1,45.0,42,29.92,10.0,Calm,Calm,-,N/A,,Clear,0,2013-03-17 23:54:00
8:54 PM,68.0,46.0,45,29.94,10.0,Variable,4.6,-,N/A,,Scattered Clouds,0,2013-03-18 00:54:00
9:54 PM,66.0,46.0,48,29.96,10.0,Variable,4.6,-,N/A,,Clear,0,2013-03-18 01:54:00
10:54 PM,64.0,46.0,52,29.97,10.0,Calm,Calm,-,N/A,,Clear,0,2013-03-18 02:54:00
11:54 PM,62.1,46.0,56,29.99,10.0,SSE,3.5,-,N/A,,Clear,150,2013-03-18 03:54:00